Simultaneous Nadir Overpasses (SNOs) Predictions

Prediction of SNOs between GOES-14 and AQUA Satellite Orbit:

Table of predicted SNOs for the next 14.0 days since TLE Epoch: 8/30/2019
Index Date Time (GOES-14) GOES-14 Lat,Lon AQUA Lat,Lon Distance(km) Time Diff (sec)
1 08/31/2019 20:32:30 -0.37,-104.40 -0.24,-103.89 58.47 80
2 09/02/2019 20:20:18 -0.37,-104.39 0.36,-100.93 392.67 80
3 09/03/2019 08:41:33 0.37,-104.25 0.76,-106.08 208.33 80
4 09/05/2019 08:26:41 0.36,-104.23 0.16,-103.12 125.36 80
5 09/05/2019 20:48:05 -0.36,-104.34 -1.22,-108.32 453.38 80
6 09/07/2019 08:14:30 0.36,-104.21 -0.50,-100.17 459.02 80
7 09/07/2019 20:35:54 -0.36,-104.32 -0.56,-105.37 119.23 80
8 09/09/2019 20:26:23 -0.35,-104.30 0.05,-102.41 214.93 80
9 09/10/2019 08:47:37 0.34,-104.20 1.06,-107.56 382.30 80
10 09/12/2019 08:35:25 0.34,-104.18 0.45,-104.60 48.23 80




NCC Satellite Simultaneous Nadir Overpasses (SNOs) Prediction Service
